User: anonymous   Login
Location: Norwich
(52.6280°N, 1.3030°E)
Time: 02:37:47
(UTC+01:00)
Language:

Meteor 1-22 Rocket - Orbit

View from above orbital plane
View from above orbital plane
View from above satellite
View from above satellite

Ground track
Ground track

The orbit data is extracted from the following two-line orbital elements,

1 08294U 75087B   16272.10538039 -.00000010  00000-0 -12903-4 0  9999
2 08294  81.2139 278.0109 0105967  62.3966 298.7916 14.08588008107952
Epoch (UTC): 28 September 2016 02:31:44
Eccentricity: 0.0105967
inclination: 81.2139°
perigee height: 787 km
apogee height: 941 km
right ascension of ascending node: 278.0109°
argument of perigee: 62.3966°
revolutions per day: 14.08588008
mean anomaly at epoch: 298.7916°
orbit number at epoch: 10795

The dashed part of the orbit path shows where the satellite is in the earth's shadow,  

DLR